Regional Weather Roundup
Issued by NWS

Home | Current Version | Previous Version | Text Only | Print | Product List | Glossary Off
Versions: 1 2 3 4 5 6 7 8 9 10 11 12 13 14 15 16 17 18 19 20 21 22 23 24 25 26 27 28 29 30 31 32 33 34 35 36 37 38 39 40 41 42 43 44 45 46 47 48 49 50

000
ASUS43 KOAX 261502
RWRNE

WEATHER ROUNDUP FOR NEBRASKA
NATIONAL WEATHER SERVICE OMAHA NE
1000 AM CDT FRI MAY 26 2017

NOTES: SATELLITE DATA IS BEING USED TO AUGMENT CLOUD COVER ABOVE
       12000 FEET.
       "FAIR" INDICATES FEW OR NO CLOUDS BELOW 12,000 FEET WITH NO
       SIGNIFICANT WEATHER AND/OR OBSTRUCTIONS TO VISIBILITY.

  * THESE STATIONS DO NOT REPORT WEATHER SUCH AS RAIN...SNOW OR FOG.

NEZ001>004-019>022-054>056-261600-
NEBRASKA PANHANDLE

CITY           SKY/WX    TMP DP  RH WIND       PRES   REMARKS
SCOTTSBLUFF    SUNNY     55  38  52 NW7       29.97R
ALLIANCE       MOSUNNY   55  39  54 NW6       29.95R
CHADRON        SUNNY     57  38  48 VRB5      29.94R
SIDNEY         SUNNY     54  40  59 N8        29.98R
$$

NEZ057>060-069>072-079>082-261600-
SOUTHWEST NEBRASKA

CITY           SKY/WX    TMP DP  RH WIND       PRES   REMARKS
NORTH PLATTE   MOSUNNY   60  43  53 N10       29.92R
IMPERIAL       SUNNY     58  44  60 N14       29.95R
LEXINGTON      MOSUNNY   61  46  57 N13G20    29.89R
MCCOOK         MOSUNNY   60  45  57 N15       29.92R
$$

NEZ005>010-023>029-035>040-094-261600-
NORTH CENTRAL NEBRASKA

CITY           SKY/WX    TMP DP  RH WIND       PRES   REMARKS
VALENTINE      SUNNY     62  38  40 N13       29.92R
BROKEN BOW     SUNNY     62  42  47 N21G28    29.88S
ORD            SUNNY     63  44  50 N15G22    29.86R
$$

NEZ041-046>049-061>064-073>077-083>087-261600-
SOUTH CENTRAL NEBRASKA

CITY           SKY/WX    TMP DP  RH WIND       PRES   REMARKS
GRAND ISLAND   MOSUNNY   66  47  50 N17       29.85R
HASTINGS       CLOUDY    64  46  52 N15       29.86S
KEARNEY *      PTSUNNY   63  43  48 N20       29.87S
$$

NEZ011>018-030>034-042>045-261600-
NORTHEAST NEBRASKA

CITY           SKY/WX    TMP DP  RH WIND       PRES   REMARKS
NORFOLK        CLOUDY    61  46  57 N20G25    29.81R
ALBION         MOSUNNY   63  46  54 N14G25    29.84R
BLAIR          PTSUNNY   68  56  67 N14G20    29.77R
TEKAMAH        CLOUDY    65  52  62 NW14      29.78R
$$

NEZ050>053-065>068-078-088>093-261600-
SOUTHEAST NEBRASKA

CITY           SKY/WX    TMP DP  RH WIND       PRES   REMARKS
LINCOLN        MOSUNNY   70  52  52 N15       29.79R
OMAHA EPPLEY   PTSUNNY   71  58  63 N13       29.75R
FALLS CITY     SUNNY     73  64  73 NW8       29.73R
$$

NEZ044-045-051>053-067-261600-
OMAHA AREA

CITY           SKY/WX    TMP DP  RH WIND       PRES   REMARKS
OMAHA EPPLEY   PTSUNNY   71  58  63 N13       29.75R
BLAIR          PTSUNNY   68  56  67 N14G20    29.77R
OFFUTT AFB     SUNNY     72  59  64 NW10      29.74R
WAHOO          FAIR      67  49  52 N18       29.79R
$$



USA.gov is the U.S. government's official web portal to all federal, state and local government web resources and services.